Big Rapids, MI

2:18 AM EDT on September 20, 2019 (GMT -0400)
Roben-Hood

Weather History for KRQB - July, 2019

Change the Weather History Date:

Wednesday, July 24, 2019

  Actual Average Record
Temperature  
Mean Temperature 64 °F -  
Max Temperature 80 °F 82 °F 92 °F (1989)
Min Temperature 48 °F 57 °F 39 °F (2000)
Degree Days  
Heating Degree Days 1    
Growing Degree Days 14 (Base 50)    
Moisture  
Dew Point 51 °F    
Average Humidity 66    
Maximum Humidity 95    
Minimum Humidity 30    
Precipitation  
Precipitation 0.01 in - - ()
Sea Level Pressure  
Sea Level Pressure 30.14 in    
Wind  
Wind Speed 2 mph (WNW)    
Max Wind Speed 12 mph    
Max Gust Speed 18 mph    
Visibility 10 miles    
Events      
Averages and records for this station are not official NWS values.
T = Trace of Precipitation, MM = Missing Value Source: NWS Daily Summary

Daily Weather History Graph

Daily Weather History Graph

Search for Another Location

Airport or City:

Astronomy

Jul. 24, 2019 Rise Set
Actual Time 6:22 AM EDT 9:14 PM EDT
Civil Twilight 5:48 AM EDT 9:47 PM EDT
Nautical Twilight 5:05 AM EDT 10:30 PM EDT
Astronomical Twilight 4:15 AM EDT 11:19 PM EDT
Moon 12:49 AM EDT (7/24) 1:46 PM EDT (7/24)
Length of Visible Light 15h 59m
Length of Day
14h 51m
Waning Gibbous, 54% of the Moon is Illuminated
Jul 24
Waning Gibbous
Jul 24
Last Quarter
Jul 31
New
Aug 7
First Quarter
Aug 15
Full

Hourly Weather History & Observations

Time (EDT) Temp. Heat Index Dew Point Humidity Pressure Visibility Wind Dir Wind Speed Gust Speed Precip Events Conditions
12:15 AM 55.0 °F - 50.9 °F 86% 30.10 in 10.0 mi Calm Calm - N/A   Clear
12:16 AM 54.9 °F - 50.9 °F 86% 30.10 in 10.0 mi Calm Calm - N/A   Clear
12:39 AM 54.1 °F - 50.5 °F 88% 30.10 in 10.0 mi Calm Calm - N/A   Clear
12:56 AM 53.2 °F - 50.0 °F 89% 30.11 in 10.0 mi Calm Calm - N/A   Clear
1:15 AM 52.5 °F - 49.8 °F 91% 30.11 in 10.0 mi Calm Calm - N/A   Clear
1:16 AM 52.5 °F - 49.8 °F 91% 30.11 in 10.0 mi Calm Calm - N/A   Clear
1:35 AM 52.3 °F - 50.0 °F 92% 30.11 in 10.0 mi Calm Calm - N/A   Clear
1:59 AM 51.4 °F - 48.7 °F 90% 30.11 in 10.0 mi Calm Calm - N/A   Clear
2:17 AM 52.9 °F - 49.6 °F 89% 30.11 in 10.0 mi Calm Calm - N/A   Clear
2:36 AM 51.6 °F - 49.1 °F 91% 30.11 in 10.0 mi Calm Calm - N/A   Clear
2:55 AM 51.4 °F - 48.4 °F 89% 30.12 in 10.0 mi Calm Calm - N/A   Clear
2:56 AM 51.3 °F - 48.4 °F 90% 30.12 in 10.0 mi Calm Calm - N/A   Clear
3:15 AM 50.9 °F - 48.7 °F 92% 30.12 in 10.0 mi Calm Calm - N/A   Clear
3:20 AM 50.9 °F - 48.9 °F 93% 30.12 in 10.0 mi Calm Calm - N/A   Clear
3:38 AM 50.5 °F - 48.2 °F 92% 30.12 in 10.0 mi Calm Calm - N/A   Clear
3:56 AM 50.5 °F - 48.4 °F 92% 30.12 in 10.0 mi Calm Calm - N/A   Clear
4:15 AM 50.9 °F - 48.6 °F 92% 30.11 in 10.0 mi Calm Calm - N/A   Clear
4:16 AM 50.9 °F - 48.4 °F 91% 30.11 in 10.0 mi Calm Calm - N/A   Clear
4:35 AM 50.0 °F - 47.5 °F 91% 30.12 in 10.0 mi Calm Calm - N/A   Clear
4:59 AM 50.2 °F - 48.4 °F 94% 30.12 in 10.0 mi Calm Calm - N/A   Clear
5:17 AM 48.7 °F - 47.5 °F 95% 30.12 in 10.0 mi Calm Calm - N/A   Clear
5:35 AM 49.5 °F - 47.8 °F 94% 30.12 in 10.0 mi Calm Calm - N/A   Clear
5:36 AM 49.5 °F - 47.7 °F 94% 30.12 in 10.0 mi Calm Calm - N/A   Clear
5:55 AM 49.6 °F - 47.7 °F 93% 30.13 in 10.0 mi Calm Calm - N/A   Clear
5:59 AM 49.3 °F - 47.3 °F 93% 30.13 in 10.0 mi Calm Calm - N/A   Clear
6:17 AM 49.1 °F - 47.7 °F 95% 30.14 in 10.0 mi Calm Calm - 0.01 in   Clear
6:36 AM 49.1 °F - 47.3 °F 93% 30.14 in 10.0 mi Calm Calm - 0.01 in   Clear
6:55 AM 48.7 °F - 47.1 °F 94% 30.14 in 10.0 mi West 4.6 mph - 0.01 in   Clear
7:15 AM 50.5 °F - 48.9 °F 94% 30.14 in 10.0 mi SSW 5.8 mph - N/A   Clear
7:16 AM 50.4 °F - 48.7 °F 94% 30.14 in 10.0 mi SSW 5.8 mph - N/A   Clear
7:39 AM 51.6 °F - 50.0 °F 94% 30.15 in 10.0 mi Calm Calm - N/A   Clear
7:57 AM 52.9 °F - 51.1 °F 94% 30.16 in 10.0 mi Calm Calm - N/A   Clear
8:15 AM 54.7 °F - 52.0 °F 91% 30.16 in 10.0 mi East 9.2 mph - N/A   Clear
8:41 AM 57.7 °F - 52.7 °F 83% 30.17 in 10.0 mi Calm Calm - N/A   Clear
8:58 AM 60.6 °F - 52.9 °F 76% 30.18 in 10.0 mi Calm Calm - N/A   Clear
9:18 AM 62.1 °F - 53.8 °F 74% 30.18 in 10.0 mi Calm Calm - N/A   Scattered Clouds
9:36 AM 64.2 °F - 54.0 °F 69% 30.18 in 10.0 mi Calm Calm - N/A   Clear
9:55 AM 66.9 °F - 51.6 °F 58% 30.18 in 10.0 mi WNW 3.5 mph - N/A   Clear
10:15 AM 68.4 °F - 50.4 °F 53% 30.18 in 10.0 mi NNW 3.5 mph - N/A   Clear
10:16 AM 68.5 °F - 50.0 °F 52% 30.18 in 10.0 mi NW 4.6 mph - N/A   Clear
10:39 AM 70.2 °F - 48.4 °F 46% 30.18 in 10.0 mi NW 3.5 mph - N/A   Scattered Clouds
10:57 AM 71.6 °F - 48.6 °F 44% 30.18 in 10.0 mi West 4.6 mph - N/A   Clear
11:15 AM 72.5 °F - 47.5 °F 41% 30.17 in 10.0 mi WNW 6.9 mph - N/A   Clear
11:35 AM 73.6 °F - 47.5 °F 39% 30.17 in 10.0 mi NW 8.1 mph - N/A   Clear
11:36 AM 73.6 °F - 47.1 °F 39% 30.17 in 10.0 mi NNW 5.8 mph - N/A   Clear
11:55 AM 73.8 °F - 48.0 °F 40% 30.17 in 10.0 mi NNE 5.8 mph - N/A   Clear
12:19 PM 74.7 °F - 46.2 °F 36% 30.17 in 10.0 mi WNW 10.4 mph - N/A   Clear
12:37 PM 74.8 °F - 45.7 °F 35% 30.17 in 10.0 mi North 3.5 mph - N/A   Clear
12:55 PM 75.0 °F - 43.9 °F 33% 30.17 in 10.0 mi WNW 10.4 mph - N/A   Clear
12:56 PM 75.0 °F - 44.1 °F 33% 30.17 in 10.0 mi WNW 9.2 mph - N/A   Clear
1:15 PM 75.2 °F - 44.6 °F 34% 30.17 in 10.0 mi NW 6.9 mph - N/A   Clear
1:38 PM 76.3 °F - 47.1 °F 36% 30.16 in 10.0 mi SSW 4.6 mph - N/A   Clear
1:56 PM 76.1 °F - 42.8 °F 30% 30.16 in 10.0 mi Calm Calm - N/A   Clear
2:15 PM 77.0 °F - 43.7 °F 31% 30.15 in 10.0 mi Calm Calm - N/A   Clear
2:16 PM 77.0 °F - 43.3 °F 30% 30.15 in 10.0 mi Calm Calm - N/A   Clear
2:35 PM 77.2 °F - 44.8 °F 32% 30.14 in 10.0 mi WNW 6.9 mph - N/A   Clear
2:55 PM 78.1 °F - 47.3 °F 34% 30.14 in 10.0 mi WNW 8.1 mph - N/A   Clear
3:00 PM 78.3 °F - 48.0 °F 34% 30.14 in 10.0 mi NW 5.8 mph - N/A   Clear
3:18 PM 78.6 °F - 48.9 °F 35% 30.13 in 10.0 mi WNW 5.8 mph - N/A   Clear
3:55 PM 79.7 °F - 50.4 °F 36% 30.13 in 10.0 mi West 9.2 mph - N/A   Scattered Clouds
4:15 PM 79.0 °F - 51.4 °F 38% 30.13 in 10.0 mi WNW 10.4 mph 17.3 mph N/A   Scattered Clouds
4:39 PM 78.3 °F - 52.0 °F 40% 30.12 in 10.0 mi NW 6.9 mph - N/A   Scattered Clouds
4:57 PM 79.7 °F - 53.2 °F 40% 30.12 in 10.0 mi West 5.8 mph - N/A   Scattered Clouds
5:15 PM 80.1 °F 80.0 °F 53.6 °F 40% 30.12 in 10.0 mi NW 4.6 mph - N/A   Scattered Clouds
5:16 PM 79.7 °F - 53.8 °F 41% 30.12 in 10.0 mi WNW 4.6 mph - N/A   Scattered Clouds
5:35 PM 79.9 °F - 54.7 °F 42% 30.12 in 10.0 mi NW 8.1 mph 18.4 mph N/A   Scattered Clouds
5:59 PM 78.1 °F - 55.4 °F 45% 30.11 in 10.0 mi West 8.1 mph - N/A   Mostly Cloudy
6:17 PM 77.2 °F - 54.1 °F 45% 30.11 in 10.0 mi WNW 6.9 mph - N/A   Overcast
6:35 PM 77.0 °F - 55.6 °F 47% 30.11 in 10.0 mi WNW 5.8 mph - N/A   Overcast
6:36 PM 77.0 °F - 55.8 °F 48% 30.11 in 10.0 mi WNW 8.1 mph - N/A   Overcast
6:55 PM 77.0 °F - 55.4 °F 47% 30.12 in 10.0 mi NW 8.1 mph - N/A   Mostly Cloudy
7:18 PM 75.2 °F - 54.3 °F 48% 30.12 in 10.0 mi NW 8.1 mph 16.1 mph N/A   Scattered Clouds
7:37 PM 74.1 °F - 54.3 °F 50% 30.12 in 10.0 mi WNW 9.2 mph - N/A   Clear
7:55 PM 73.4 °F - 54.3 °F 51% 30.13 in 10.0 mi WNW 11.5 mph - N/A   Clear
7:56 PM 73.2 °F - 54.3 °F 51% 30.13 in 10.0 mi WNW 11.5 mph - N/A   Clear
8:15 PM 72.1 °F - 55.2 °F 55% 30.13 in 10.0 mi WNW 9.2 mph - N/A   Clear
8:38 PM 71.2 °F - 54.7 °F 56% 30.12 in 10.0 mi West 11.5 mph - N/A   Clear
8:56 PM 70.7 °F - 55.4 °F 58% 30.12 in 10.0 mi West 9.2 mph - N/A   Clear
9:16 PM 70.0 °F - 56.1 °F 61% 30.13 in 10.0 mi West 9.2 mph - N/A   Clear
9:35 PM 67.1 °F - 58.3 °F 73% 30.13 in 10.0 mi Calm Calm - N/A   Clear
9:55 PM 65.3 °F - 57.9 °F 77% 30.12 in 10.0 mi Calm Calm - N/A   Clear
10:00 PM 65.7 °F - 56.8 °F 73% 30.13 in 10.0 mi South 4.6 mph - N/A   Clear
10:18 PM 64.6 °F - 58.1 °F 79% 30.13 in 10.0 mi Calm Calm - N/A   Clear
10:36 PM 65.3 °F - 57.6 °F 76% 30.14 in 10.0 mi North 4.6 mph - N/A   Clear
10:55 PM 63.3 °F - 57.9 °F 83% 30.14 in 10.0 mi East 3.5 mph - N/A   Clear
11:15 PM 63.5 °F - 57.4 °F 80% 30.13 in 10.0 mi Calm Calm - N/A   Clear
11:16 PM 63.5 °F - 57.4 °F 80% 30.13 in 10.0 mi Calm Calm - N/A   Clear
11:39 PM 61.7 °F - 57.2 °F 85% 30.13 in 10.0 mi Calm Calm - N/A   Clear
11:57 PM 61.7 °F - 56.8 °F 84% 30.13 in 10.0 mi Calm Calm - N/A   Clear